Location: Unspecified
(53.1600°N, 0.0000°E)
Time: 07:14:22
(UTC+00:00)

Burner II No. 4 - Visible Passes

Search period start: 04 April 2026 00:00
Search period end: 14 April 2026 00:00
Orbit: 807 x 862 km, 98.5° (Epoch: 29 March)

Date Brightness Start Highest point End Pass type
(mag) Time Alt. Az. Time Alt. Az. Time Alt. Az.
4 Apr 8.4 03:38:39 10° E 03:42:31 21° NE 03:46:22 10° N visible
4 Apr 6.4 19:10:17 10° N 19:15:34 61° WNW 19:20:53 10° SSW visible
4 Apr 8.9 20:52:11 10° NNW 20:55:02 15° NW 20:57:52 10° W visible
5 Apr 8.7 03:22:56 10° E 03:26:12 17° NE 03:29:29 10° NNE visible
5 Apr 8.6 20:35:12 10° N 20:38:45 18° NW 20:42:19 10° W visible
6 Apr 8.9 03:07:28 10° ENE 03:09:57 14° NE 03:12:26 10° NNE visible
6 Apr 6.5 04:44:10 10° SE 04:49:20 56° ENE 04:54:31 10° N visible
6 Apr 8.3 20:18:21 10° N 20:22:27 23° NW 20:26:34 10° WSW visible
7 Apr 9.2 02:52:32 10° NE 02:53:44 11° NE 02:54:55 10° NNE visible
7 Apr 7.1 04:27:54 10° SE 04:32:53 43° ENE 04:37:53 10° N visible
7 Apr 7.9 20:01:35 10° N 20:06:06 29° WNW 20:10:40 10° WSW visible
8 Apr 7.6 04:11:46 10° SE 04:16:28 34° ENE 04:21:13 10° N visible
8 Apr 7.5 19:44:52 10° N 19:49:44 36° WNW 19:54:38 10° SW visible
9 Apr 8.0 03:55:45 10° ESE 04:00:06 27° ENE 04:04:30 10° N visible
9 Apr 7.0 19:28:12 10° N 19:33:20 46° WNW 19:38:29 10° SW visible
9 Apr 9.1 21:10:48 10° NNW 21:12:32 12° NW 21:14:16 10° WNW visible
10 Apr 8.4 03:39:51 10° ESE 03:43:46 22° NE 03:47:43 10° N visible
10 Apr 8.9 20:53:30 10° NNW 20:56:18 14° NW 20:59:07 10° W visible
11 Apr 8.8 03:24:07 10° E 03:27:28 17° NE 03:30:51 10° N visible
11 Apr 8.7 20:36:30 10° N 20:40:02 18° NW 20:43:35 10° W visible
12 Apr 8.9 03:08:36 10° ENE 03:11:12 14° NE 03:13:50 10° NNE visible
12 Apr 8.4 20:19:39 10° N 20:23:44 22° NW 20:27:51 10° WSW visible
13 Apr 9.2 02:53:32 10° ENE 02:54:59 11° NE 02:56:27 10° NNE visible
13 Apr 8.0 20:02:52 10° N 20:07:24 28° WNW 20:11:58 10° WSW visible
